Location: Unspecified
(47.9110°N, 14.3980°E)
Time: 04:28:41
(UTC+00:00)

Cosmos 2082 Rocket - Pass Details

Date: 06 August 2020
Orbit: 835 x 852 km, 71.0° (Epoch: 19 September)

Event Time Altitude Azimuth Distance (km) Brightness Sun altitude
Rises 22:16:19 0° 245° (WSW) 3,407 5.2 -24.7°
Reaches altitude 10° 22:19:11 10° 258° (WSW) 2,473 4.6 -24.8°
Maximum altitude 22:23:52 26° 314° (NW) 1,616 4.2 -25.0°
Drops below altitude 10° 22:28:35 10° 10° (N) 2,474 5.5 -25.1°
Sets 22:31:27 0° 23° (NNE) 3,409 6.2 -25.2°
